Location: Arroyo Grande
(40.2671°N, 4.2512°W)
Time: 00:04:27
(UTC+00:00)

Cosmos 2278 Rocket - Pass Details

Date: 29 September 2023
Orbit: 842 x 844 km, 71.0° (Epoch: 03 December)

Event Time Altitude Azimuth Distance (km) Brightness Sun altitude
Rises 21:27:32 0° 319° (NW) 3,408 6.2 -37.8°
Reaches altitude 10° 21:30:49 10° 300° (WNW) 2,467 5.3 -38.3°
Maximum altitude 21:34:19 17° 261° (W) 2,004 4.5 -38.9°
Enters shadow 21:34:28 17° 260° (W) 2,004 4.5 -38.9°
